Temp_Advection
nan nan nan nan nan nan nan nan nan nan nan nan nan nan nan nan nan nan nan nan nan nan nan nan nan nan nan nan nan nan nan nan nan nan nan nan nan nan nan nan nan nan nan nan nan nan nan nan nan
nan 0 0 0 0 -0 -0 0 -0 0 -0 -0 -0 0 -0 -0 -0 1 1 1 0 0 -0 -0 -0 0 -0 -0 -0 -0 -0 -0 0 -0 -0 -0 -0 0 0 0 -0 -0 -0 -0 -0 0 0 0 nan
nan 0 0 0 0 0 -0 -0 -0 -0 -0 -0 -0 -0 -0 -0 -0 0 -0 0 0 0 -0 0 -0 -0 -0 -0 -0 -0 -0 -0 -0 -0 -0 -0 0 0 0 -0 -0 -0 -0 -0 0 0 0 0 nan
nan 0 0 0 0 0 -0 -0 -0 -0 -0 -0 -0 -1 -0 -0 -0 -0 -0 -0 -0 0 -0 -0 -0 -0 0 -0 -0 -0 -0 0 -0 -0 -0 0 0 0 -0 -0 -0 -0 0 0 0 0 0 -0 nan
nan -0 0 0 -0 -0 -0 -0 -0 -0 -0 -0 -0 -0 -0 0 0 -0 0 0 -0 -0 -0 -0 -0 -0 -0 -0 0 -0 -0 0 -0 -0 0 0 0 0 -0 0 0 0 0 0 0 0 -0 -0 nan
nan 0 0 0 -0 0 -0 -0 -0 -0 -0 -0 -0 -1 -0 -0 -0 0 0 0 0 -0 -0 -0 -0 -0 -0 -0 -0 -0 -0 -0 -0 -0 -0 0 0 -0 -0 0 0 0 0 -0 0 -0 -0 0 nan
nan 0 -0 0 0 -0 -0 -0 -0 -0 -0 -0 -0 -0 -0 0 0 -0 0 0 0 0 -0 0 0 0 -0 -0 -0 -0 -0 -0 0 -0 -0 0 0 0 0 0 -0 -0 -0 -0 0 -0 -0 -0 nan
nan 0 -0 0 0 -0 -0 -0 -0 -0 -0 -0 0 -0 -0 -0 0 0 0 0 0 0 0 -0 -0 0 -0 -0 -0 -0 -0 -0 -0 -0 -0 0 0 0 0 -0 -0 -0 -0 0 0 -0 0 -0 nan
nan 0 0 0 -0 -0 -0 -0 -0 -0 -0 -0 -0 0 -1 -1 0 0 0 0 0 0 0 -0 -0 -0 -0 -0 -0 -0 -0 -0 -0 0 0 0 0 0 -0 -0 -0 -0 -0 -0 0 0 0 -0 nan
nan 0 0 0 0 -0 -0 -0 -0 -0 -1 -0 -0 0 0 -0 1 0 0 -0 -0 -0 -0 -0 -0 -0 -0 -0 -0 -0 -0 0 0 -0 0 0 0 -0 -0 -0 0 -0 -0 0 0 0 -0 -1 nan
nan 0 -0 -0 0 -0 -0 -0 -0 -0 -0 -0 -1 -1 0 -0 0 0 -0 -0 -0 -0 -0 -0 -0 -0 -0 -0 -0 0 0 0 0 0 0 0 0 -0 -0 0 0 -0 -0 -0 0 0 -0 -0 nan
nan 0 -0 -0 -0 -0 -0 -0 -0 0 -0 0 0 -0 -1 -1 -1 -0 -0 0 0 0 -0 -0 -0 -0 -0 -0 -0 -0 -0 0 0 0 0 0 0 -0 0 -0 -0 -0 -0 -0 -0 -0 -0 -0 nan
nan -0 0 -0 0 0 -0 -0 -0 0 -0 0 -0 0 -0 -0 -0 0 0 0 -0 0 0 0 0 0 0 -0 -0 -0 0 0 0 0 0 0 0 0 -0 -0 -0 -0 -0 -0 -0 -0 -0 -0 nan
nan -0 0 -0 -0 -0 -0 -0 -0 -0 -0 0 -0 -1 -0 -0 -0 -0 -0 -1 -0 -0 0 0 0 0 0 0 0 0 0 0 0 0 0 0 0 0 -0 -0 0 -0 -0 -0 -0 -0 -0 -0 nan
nan 0 -0 -0 0 -0 -0 -0 0 -0 -0 -0 -0 -0 -0 -0 -1 -1 -1 -1 -0 0 0 -0 0 0 0 0 0 0 0 0 0 0 0 0 0 0 0 -0 -0 -0 -0 -0 -0 0 -0 -0 nan
nan -0 -0 0 -0 0 -0 0 0 -0 -1 -0 -0 -0 -0 -1 -1 -0 -0 -0 0 -0 -0 0 0 0 0 0 0 0 0 0 0 0 0 -0 -0 0 0 0 0 -0 -0 -0 -0 -0 0 -0 nan
nan -0 -0 -0 0 -0 0 0 -0 -0 -1 -1 -0 -1 -0 -0 0 -0 -1 -0 0 -0 0 0 0 0 0 0 0 0 0 0 -0 -0 -0 -0 0 0 0 0 0 0 -0 -0 -0 -0 -0 -0 nan
nan 0 -0 -0 -0 0 -0 0 0 -0 -0 -0 -0 -1 -1 -0 -1 -1 -0 0 0 -0 0 0 -0 0 0 0 0 0 0 0 -0 -0 0 0 0 0 0 0 0 0 -0 0 -0 -0 -0 -0 nan
nan -0 -0 -0 -0 0 -0 -0 0 0 -0 -0 -1 -0 -0 -1 -0 0 -0 1 -0 -0 -0 -0 -0 0 -0 -0 -0 0 0 0 -0 -0 0 0 0 0 0 0 0 0 0 -0 -0 -0 -0 -0 nan
nan 0 -0 0 0 -0 -0 -0 0 -0 -0 -0 -0 -0 -0 -0 0 -0 0 -0 -1 0 0 0 -0 0 0 -0 0 0 0 0 0 0 0 0 -0 0 0 0 0 -0 -0 0 0 0 -0 -0 nan
nan 0 0 -0 0 -0 -0 -0 -0 -0 0 0 -0 -0 -0 0 0 -0 -0 -1 1 1 -0 -0 0 -0 0 0 0 0 0 0 -0 -0 -0 0 0 0 0 0 0 0 0 -0 -0 0 0 0 nan
nan 0 0 -0 -0 0 -0 -0 0 -0 0 0 0 -0 0 0 -0 -0 -1 -0 2 -0 -1 -0 -0 -0 0 0 -0 -0 -0 -0 -0 0 0 0 0 0 0 0 0 0 -0 0 0 0 0 0 nan
nan 0 -0 -0 0 0 -0 -0 0 0 -0 0 0 0 0 0 -0 0 0 1 1 -3 -1 -1 -0 -0 0 0 0 0 0 0 0 0 0 0 0 0 0 0 0 0 0 0 0 -0 0 0 nan
nan -0 -0 0 0 0 -0 -0 -0 0 -0 -0 0 0 0 0 0 0 0 1 -1 -2 -0 0 0 -0 0 0 0 0 0 0 0 0 0 -0 0 0 0 0 0 0 0 0 0 0 0 0 nan
nan -0 -0 0 0 0 -0 -0 -0 0 0 -0 -0 -0 -0 0 0 0 0 0 -1 -1 -0 0 -0 0 0 -0 -0 -0 0 0 0 0 0 0 -0 -0 0 0 0 0 0 0 0 0 -0 -0 nan
nan 0 0 0 0 -0 -0 -0 -0 0 0 0 0 -0 0 -0 0 0 -0 -1 -1 -0 -0 0 0 0 -0 -0 -0 0 0 0 0 0 0 0 0 0 0 0 0 0 0 0 -0 0 0 0 nan
nan 0 -0 -0 0 -0 0 -0 0 0 -0 -0 0 0 0 -0 0 0 0 -1 -1 -0 -0 -0 -0 -0 -0 0 0 0 0 0 -0 0 0 0 0 0 0 -0 -0 0 0 0 0 0 0 0 nan
nan -0 0 0 -0 -0 -0 -0 -0 -0 0 -0 -0 -0 -0 -0 -0 0 -0 -0 -1 -0 -0 -0 -0 -0 0 0 0 0 0 0 0 0 0 -0 0 0 0 0 0 0 0 0 0 -0 0 0 nan
nan -0 -0 0 -0 -0 -0 -0 0 0 -0 0 -0 -0 -1 -1 -0 -0 -0 -0 -0 -0 -0 -0 -0 -0 -0 0 0 0 0 0 0 0 0 0 0 0 0 0 0 0 0 0 -0 -0 0 0 nan
nan nan nan nan nan nan nan nan nan nan nan nan nan nan nan nan nan nan nan nan nan nan nan nan nan nan nan nan nan nan nan nan nan nan nan nan nan nan nan nan nan nan nan nan nan nan nan nan nan
Wind_Speed
6 3 4 2 1 5 4 3 1 10 7 6 20 5 3 3 1 2 17 22 22 22 20 17 13 12 10 9 7 6 4 5 6 7 7 9 11 12 11 11 11 10 9 10 10 10 10 10 8
4 2 1 0 3 4 3 2 8 9 3 12 11 6 3 4 3 11 24 23 21 21 20 17 14 12 9 8 7 5 5 5 6 7 9 10 11 12 12 13 12 11 12 12 10 10 11 10 9
4 6 1 3 3 3 4 5 7 8 11 18 6 6 3 3 5 25 16 26 22 21 20 18 14 11 10 10 9 7 5 6 6 10 11 11 11 11 12 13 11 12 12 13 11 8 10 12 11
3 3 4 4 8 4 3 7 17 12 8 10 8 7 5 1 15 17 26 25 22 21 20 17 13 11 10 9 8 6 6 7 8 10 11 10 10 11 12 12 12 13 12 12 13 9 9 13 13
6 4 4 4 6 3 5 11 11 5 5 7 2 6 6 9 9 20 26 23 21 20 19 17 13 10 10 9 7 6 6 9 13 11 9 9 9 11 11 14 14 11 14 10 14 16 14 15 14
5 3 3 4 4 4 6 10 5 4 7 7 8 11 5 6 13 26 25 23 19 18 17 15 13 10 9 8 7 6 9 13 13 10 9 8 9 10 14 15 15 11 12 12 13 15 16 15 15
4 3 2 2 4 3 4 6 2 5 6 5 16 6 7 11 18 25 24 21 20 17 16 15 12 10 9 8 7 9 13 13 11 9 9 9 11 12 14 16 19 13 14 16 16 16 16 15 16
3 2 2 1 2 4 5 4 7 6 6 14 7 6 8 19 25 25 23 21 19 18 16 14 12 11 9 8 8 12 14 12 10 9 9 9 10 11 13 15 19 14 13 14 18 17 17 17 19
3 2 3 1 1 4 9 5 3 4 16 4 1 8 15 27 29 25 23 22 20 18 16 14 12 11 9 9 10 14 13 10 9 9 9 8 8 9 12 13 15 16 14 14 18 19 21 21 22
3 2 2 0 1 2 10 8 6 7 11 5 10 13 24 29 29 27 25 24 22 20 17 15 13 12 11 9 10 13 11 9 8 8 8 7 7 11 13 14 13 10 12 15 18 20 22 24 22
4 1 1 2 5 5 10 7 5 10 7 7 14 24 26 27 26 24 23 22 21 19 18 16 15 13 12 10 11 12 10 8 7 6 6 8 8 10 12 14 17 14 12 14 16 19 23 24 24
2 3 4 4 3 6 9 9 5 9 2 5 16 28 28 28 27 25 23 23 22 21 18 16 15 15 13 11 12 11 9 8 5 5 4 7 8 7 9 11 14 12 12 13 14 17 20 22 24
2 3 3 4 3 7 11 5 2 7 5 13 18 25 25 25 24 22 19 19 21 20 19 18 17 16 14 12 12 11 8 7 6 5 3 4 5 7 8 9 12 14 11 11 10 13 16 20 21
5 6 1 5 7 9 6 4 3 5 12 16 19 25 22 22 22 18 20 20 20 19 19 18 17 17 15 14 12 10 8 7 7 6 3 2 3 4 7 8 9 12 9 9 9 10 12 17 17
6 2 4 8 3 3 8 3 4 11 16 17 19 22 20 20 21 22 20 20 18 17 17 19 17 17 16 15 14 12 9 8 9 7 5 3 1 1 5 5 6 9 9 6 7 9 10 12 15
5 3 2 3 1 3 2 3 1 14 18 17 19 21 23 24 25 24 23 21 19 18 16 18 18 18 17 16 15 14 13 10 10 9 6 4 2 1 3 4 4 6 6 5 5 7 9 10 12
6 2 2 2 1 2 5 4 3 16 18 17 19 19 19 21 21 26 26 24 20 16 15 16 17 19 18 17 15 16 15 12 12 11 9 7 5 3 2 2 1 4 5 3 3 7 6 8 10
2 2 3 3 1 3 6 12 5 16 20 18 17 17 18 19 23 24 26 24 21 18 15 16 16 16 17 18 17 17 17 16 15 15 13 10 7 6 4 4 3 2 2 4 2 6 7 7 8
1 2 6 4 3 3 3 9 6 11 18 18 18 20 22 22 19 22 22 23 22 22 22 19 18 17 17 18 19 19 18 16 15 17 14 13 10 7 6 5 5 4 1 2 1 4 6 7 7
2 3 3 3 2 4 4 9 6 6 11 20 21 22 21 18 20 23 24 24 20 23 23 23 20 19 19 20 19 18 15 14 13 13 15 15 12 9 7 6 5 6 6 2 1 2 4 7 9
3 3 5 5 4 1 7 3 3 2 5 7 16 18 18 22 23 23 24 28 26 21 16 21 22 20 20 21 21 20 18 16 14 15 14 13 13 12 10 8 6 7 8 7 5 3 3 6 10
1 2 6 9 3 2 5 3 2 6 8 4 4 10 14 18 23 25 26 27 27 23 15 18 24 22 23 24 23 22 21 18 14 14 13 13 14 14 12 10 9 9 8 9 8 6 5 5 8
1 4 6 4 5 1 3 3 1 3 3 6 3 3 6 12 20 25 27 26 23 30 20 23 21 23 24 26 25 23 21 20 18 15 15 16 16 15 15 13 14 11 10 10 11 9 8 6 8
4 2 2 3 2 2 2 3 1 1 2 4 6 11 10 8 9 15 20 21 26 30 24 17 25 20 23 26 26 25 23 20 20 19 17 18 18 18 17 16 14 14 13 13 14 12 12 10 10
2 1 2 4 3 2 1 3 2 3 4 5 9 10 14 11 4 4 15 23 29 30 30 19 9 20 25 26 25 24 21 19 21 19 20 19 19 20 20 18 17 16 15 13 15 17 18 17 15
2 2 3 5 4 0 1 3 2 5 5 7 6 7 9 11 8 3 9 19 26 24 28 32 20 16 23 23 23 22 22 21 21 20 20 19 19 18 17 17 18 17 17 17 16 19 20 20 18
6 5 2 4 1 3 0 4 10 8 9 7 5 4 8 11 8 3 4 13 19 20 23 32 34 23 17 20 21 21 21 21 22 19 19 19 18 17 16 18 19 19 19 19 18 19 19 20 18
4 7 3 1 5 5 2 4 5 5 8 8 1 7 14 15 9 0 5 8 12 12 13 18 27 29 23 20 19 20 21 21 21 20 20 20 18 17 17 18 19 20 21 21 20 21 21 19 19
4 4 3 2 2 3 3 2 5 11 4 7 5 8 14 16 9 3 2 7 8 9 11 12 17 22 23 22 20 20 19 21 21 22 21 20 19 20 20 18 18 18 19 21 22 22 21 21 20
1 8 10 7 6 1 2 3 1 3 6 6 7 10 12 12 9 8 10 12 8 6 5 7 10 14 18 22 23 23 22 22 23 22 23 22 22 22 21 21 20 19 18 19 22 22 22 20 20
Wind_Direction
112 101 24 55 117 89 80 73 54 128 156 179 162 212 174 69 19 56 148 157 163 160 155 155 154 145 147 148 147 129 97 74 49 52 60 82 77 67 57 48 40 34 25 23 17 25 21 20 28
107 38 65 24 69 96 85 150 162 173 136 144 148 119 92 78 65 140 146 156 161 159 155 152 148 146 151 153 152 141 112 75 65 68 82 74 68 60 49 39 36 31 29 25 12 15 25 36 49
97 8 335 72 61 79 131 178 135 119 137 151 138 78 60 61 123 143 157 153 160 159 155 153 148 144 146 145 143 134 105 68 77 98 92 76 60 53 46 39 30 26 24 19 19 30 43 45 60
17 27 49 65 69 52 61 134 134 126 111 157 127 78 76 59 137 154 154 153 158 158 157 155 149 136 134 135 132 124 103 93 98 101 93 81 69 57 41 27 19 26 25 33 40 55 56 59 73
62 55 47 68 62 84 109 139 142 117 113 124 138 106 92 126 141 153 153 153 159 158 159 159 153 140 133 131 124 116 104 111 115 104 87 71 60 49 39 31 24 29 28 44 48 67 67 70 71
62 57 69 86 76 72 106 139 151 106 126 129 105 108 111 171 158 155 154 155 159 159 158 160 155 150 145 139 129 118 119 121 119 108 88 66 55 42 49 35 21 22 32 59 64 62 69 72 77
77 72 112 95 98 108 118 151 98 110 131 115 138 101 135 151 162 158 156 158 161 161 160 159 157 158 153 146 132 127 129 127 121 102 80 64 57 51 46 36 30 50 58 78 65 63 69 77 79
62 96 94 66 76 78 120 137 124 123 79 129 127 162 167 167 164 160 160 163 166 168 167 166 162 162 157 146 137 137 138 134 120 97 81 69 72 56 41 37 36 52 72 73 60 66 70 82 81
13 74 61 68 150 119 149 131 95 108 138 109 23 148 161 159 160 161 164 168 173 175 176 177 172 166 161 156 154 151 147 139 122 100 88 93 61 47 41 39 42 54 70 72 58 67 74 79 81
10 77 59 10 285 182 159 150 146 134 151 90 84 126 156 159 163 168 172 174 178 181 180 181 179 174 170 169 164 161 154 148 128 107 92 104 58 44 60 47 34 59 63 74 67 71 77 78 80
345 82 338 300 258 162 156 127 149 149 197 193 168 152 159 164 170 175 180 182 179 180 184 182 180 180 180 175 172 171 169 159 144 121 94 98 73 60 54 51 51 76 78 80 75 79 82 82 81
18 264 241 301 135 160 164 149 145 166 321 208 173 165 164 170 178 183 186 185 183 186 185 184 183 184 184 182 180 181 181 180 170 142 116 94 75 69 46 49 50 61 86 88 82 88 89 87 83
227 294 294 256 322 169 140 154 123 189 85 138 151 165 171 174 181 187 192 192 192 194 193 189 186 186 190 190 187 191 198 192 186 178 142 103 77 70 50 53 53 65 87 91 92 96 97 91 85
326 311 91 90 99 129 146 143 174 146 139 138 157 174 178 181 184 189 195 197 199 202 204 201 196 191 195 197 198 200 207 207 194 193 188 140 98 70 57 59 61 63 74 94 107 106 108 96 90
330 80 49 47 87 125 135 159 235 160 152 153 173 182 184 190 194 201 203 205 207 211 212 211 207 203 201 203 207 213 216 209 202 201 208 218 161 78 55 64 71 65 64 82 120 126 114 106 96
25 37 5 29 104 136 233 289 187 163 162 170 183 184 195 201 206 210 215 215 216 219 220 217 218 212 207 205 210 212 214 212 209 213 222 234 230 177 82 84 82 60 57 82 132 145 133 119 105
39 38 349 317 14 176 217 292 168 179 182 186 193 187 195 206 213 218 220 220 219 222 221 219 222 217 213 212 210 217 219 223 217 221 228 242 243 224 175 145 113 75 58 81 154 166 153 136 118
27 9 328 272 284 235 223 258 241 199 198 201 200 197 198 205 211 220 226 226 226 227 224 222 224 219 216 218 215 222 225 231 229 234 236 242 245 238 230 212 217 195 58 4 191 171 159 150 134
315 291 300 266 260 262 257 274 267 214 212 212 207 205 209 209 213 219 227 232 234 229 229 222 221 217 216 214 215 221 228 234 242 236 239 238 241 230 221 205 221 228 208 22 142 174 179 174 158
25 335 327 305 239 259 305 304 332 167 220 225 217 216 215 210 214 219 222 222 230 227 224 224 222 221 222 220 220 228 232 238 249 242 238 232 232 217 213 216 214 232 244 229 232 214 205 207 186
8 12 5 347 345 103 313 269 11 48 333 238 228 230 226 218 216 218 218 222 219 249 244 236 224 227 228 229 228 228 233 236 245 240 238 235 223 223 214 225 230 235 242 239 236 219 215 234 210
319 164 326 296 289 351 342 335 357 353 12 46 241 232 234 229 229 226 222 224 218 205 232 242 237 236 234 233 234 235 238 239 244 243 238 232 229 222 221 232 229 222 229 235 232 217 212 205 210
302 347 346 345 162 225 36 278 15 354 8 6 353 307 274 246 235 229 224 218 208 219 208 216 217 223 234 235 237 237 238 241 241 241 239 235 233 229 232 235 234 233 227 231 232 232 230 220 221
301 154 85 76 152 229 2 316 272 311 324 297 325 344 2 336 246 226 218 209 204 228 213 234 223 215 226 232 235 238 237 236 240 237 237 235 236 236 233 234 238 241 242 237 233 234 233 240 245
192 253 230 201 208 289 46 251 293 227 231 271 322 336 351 1 14 204 188 191 201 221 214 219 228 222 221 226 232 238 238 238 242 240 238 238 237 238 240 237 239 245 249 246 237 238 243 246 248
143 220 231 223 219 85 121 238 42 197 209 277 277 315 356 3 0 17 186 190 202 216 211 213 217 222 221 222 229 235 240 240 242 241 237 238 241 242 243 242 242 243 247 252 249 243 246 246 246
158 203 86 119 99 250 307 268 265 234 253 222 274 333 1 5 4 324 229 199 200 208 212 215 217 227 223 225 226 231 235 236 239 239 238 237 239 238 236 236 237 239 242 245 249 247 246 245 246
242 135 166 191 194 229 193 275 261 245 202 193 90 9 358 353 351 58 202 197 192 194 202 213 221 229 235 228 228 233 238 239 240 243 241 239 238 236 234 236 240 241 244 246 246 246 245 248 244
150 164 74 118 293 233 239 255 220 247 91 175 62 12 351 344 346 48 136 163 164 181 195 199 213 222 229 232 233 234 240 241 241 245 246 245 245 241 239 240 246 248 247 245 243 245 245 246 244
332 211 198 226 188 87 306 269 79 76 104 63 35 17 13 22 54 78 107 108 121 142 179 204 218 224 231 236 239 241 246 247 246 249 250 247 248 248 247 245 247 252 252 249 246 241 240 239 239
Height
1515 1514 1513 1513 1519 1516 1531 1531 1528 1531 1534 1534 1537 1539 1539 1541 1541 1547 1547 1551 1555 1557 1559 1562 1564 1566 1567 1568 1569 1570 1570 1569 1568 1567 1566 1565 1565 1564 1564 1562 1561 1560 1558 1557 1556 1554 1553 1550 1549
1514 1515 1514 1513 1520 1527 1535 1528 1528 1527 1530 1533 1538 1539 1540 1543 1545 1545 1549 1553 1557 1559 1561 1564 1566 1567 1568 1569 1570 1571 1571 1571 1570 1569 1569 1569 1568 1566 1565 1564 1563 1560 1560 1558 1556 1554 1553 1551 1549
1515 1515 1516 1515 1523 1532 1531 1526 1526 1529 1531 1533 1537 1539 1542 1546 1546 1549 1551 1554 1558 1561 1563 1566 1568 1569 1569 1570 1571 1572 1573 1573 1571 1570 1571 1571 1570 1569 1568 1567 1564 1562 1560 1558 1556 1555 1554 1552 1551
1515 1516 1517 1523 1529 1527 1527 1527 1529 1531 1533 1535 1537 1541 1545 1546 1549 1550 1553 1556 1560 1563 1565 1567 1569 1570 1571 1572 1573 1573 1573 1573 1573 1573 1573 1572 1571 1571 1570 1568 1565 1563 1561 1560 1558 1556 1555 1554 1552
1516 1516 1522 1524 1527 1526 1526 1528 1530 1531 1533 1536 1538 1543 1547 1549 1550 1552 1555 1559 1562 1565 1567 1569 1570 1572 1573 1573 1573 1574 1574 1574 1574 1575 1575 1574 1573 1573 1571 1569 1567 1564 1563 1561 1559 1558 1557 1556 1555
1518 1521 1529 1533 1528 1527 1528 1530 1531 1533 1535 1538 1540 1543 1549 1550 1552 1554 1557 1560 1564 1566 1568 1570 1572 1573 1574 1574 1574 1575 1575 1576 1576 1576 1577 1576 1575 1575 1573 1571 1568 1566 1565 1564 1562 1561 1560 1558 1558
1519 1524 1534 1533 1530 1528 1529 1531 1532 1534 1536 1538 1540 1545 1550 1551 1553 1556 1559 1562 1565 1568 1569 1571 1572 1574 1575 1575 1575 1576 1577 1578 1578 1579 1578 1577 1577 1576 1575 1573 1570 1568 1567 1567 1566 1564 1562 1561 1561
1522 1524 1531 1532 1531 1531 1530 1532 1533 1535 1538 1540 1542 1543 1549 1549 1553 1557 1560 1563 1566 1568 1570 1572 1573 1574 1575 1576 1577 1577 1578 1579 1580 1581 1581 1579 1579 1578 1577 1575 1573 1571 1571 1570 1569 1567 1565 1565 1564
1523 1525 1531 1529 1529 1528 1531 1532 1535 1536 1538 1541 1542 1542 1545 1548 1552 1557 1560 1563 1566 1568 1570 1572 1574 1575 1576 1577 1577 1578 1579 1580 1581 1582 1582 1581 1581 1580 1579 1578 1576 1575 1574 1573 1572 1570 1569 1568 1568
1525 1526 1527 1525 1525 1526 1529 1532 1534 1536 1539 1542 1543 1543 1546 1549 1552 1556 1559 1561 1564 1567 1569 1571 1573 1575 1576 1577 1578 1580 1581 1582 1583 1583 1583 1583 1582 1581 1580 1579 1578 1577 1577 1576 1576 1574 1573 1572 1572
1524 1527 1527 1525 1524 1525 1528 1531 1534 1535 1538 1539 1541 1544 1547 1550 1554 1557 1560 1561 1564 1567 1569 1571 1573 1575 1576 1578 1579 1581 1582 1583 1583 1584 1584 1584 1584 1583 1582 1582 1580 1579 1579 1579 1579 1579 1577 1577 1577
1528 1526 1526 1524 1523 1525 1527 1530 1533 1535 1536 1537 1539 1541 1545 1549 1553 1556 1559 1561 1563 1566 1569 1572 1574 1575 1577 1578 1580 1582 1583 1584 1584 1585 1585 1585 1586 1585 1585 1584 1583 1582 1581 1581 1582 1582 1581 1581 1580
1530 1526 1525 1524 1523 1525 1528 1530 1532 1536 1536 1537 1540 1545 1548 1550 1554 1558 1561 1563 1564 1566 1568 1570 1573 1575 1577 1579 1580 1582 1583 1584 1585 1586 1586 1587 1587 1587 1587 1586 1586 1584 1584 1584 1584 1584 1584 1584 1584
1529 1526 1524 1524 1525 1526 1529 1531 1532 1536 1537 1540 1542 1545 1550 1553 1556 1560 1561 1562 1564 1566 1568 1571 1573 1574 1576 1578 1581 1582 1583 1585 1586 1586 1587 1587 1588 1589 1588 1588 1588 1587 1586 1586 1586 1586 1587 1586 1587
1528 1526 1523 1525 1527 1528 1529 1533 1531 1534 1538 1541 1542 1547 1552 1554 1556 1557 1560 1561 1563 1565 1567 1570 1572 1575 1576 1578 1580 1581 1583 1584 1586 1587 1587 1588 1588 1589 1589 1589 1589 1588 1588 1587 1587 1588 1588 1588 1589
1530 1529 1536 1528 1528 1529 1529 1533 1531 1535 1539 1540 1540 1546 1548 1550 1551 1554 1557 1560 1562 1565 1566 1569 1571 1573 1576 1577 1579 1581 1582 1583 1585 1586 1587 1588 1588 1588 1589 1589 1589 1589 1589 1589 1589 1589 1589 1589 1590
1535 1545 1541 1533 1530 1529 1531 1531 1529 1532 1536 1538 1539 1544 1546 1549 1553 1553 1552 1555 1560 1563 1566 1568 1571 1572 1575 1577 1579 1579 1581 1583 1584 1585 1586 1587 1588 1588 1589 1589 1590 1589 1589 1589 1590 1589 1590 1589 1591
1547 1544 1539 1539 1530 1530 1529 1527 1527 1529 1532 1535 1538 1542 1544 1546 1547 1549 1551 1556 1560 1563 1566 1569 1571 1573 1575 1576 1578 1578 1579 1581 1582 1583 1585 1586 1587 1588 1588 1589 1589 1589 1589 1589 1589 1590 1590 1591 1591
1537 1541 1541 1533 1529 1530 1529 1526 1522 1526 1530 1533 1535 1537 1538 1541 1544 1546 1549 1552 1557 1558 1562 1565 1568 1571 1573 1575 1576 1577 1578 1579 1580 1581 1583 1585 1586 1586 1587 1587 1588 1589 1588 1588 1589 1590 1590 1591 1592
1536 1539 1538 1530 1529 1531 1528 1522 1520 1523 1526 1527 1529 1530 1535 1539 1541 1542 1545 1547 1548 1550 1555 1560 1564 1568 1572 1574 1575 1577 1577 1578 1579 1579 1581 1583 1584 1585 1586 1586 1587 1587 1587 1587 1588 1589 1590 1591 1592
1535 1539 1538 1538 1530 1530 1529 1525 1523 1522 1523 1522 1524 1527 1531 1534 1535 1538 1540 1542 1547 1554 1563 1563 1561 1565 1569 1572 1574 1574 1575 1575 1576 1577 1578 1580 1582 1583 1584 1584 1585 1586 1586 1586 1587 1588 1589 1590 1591
1539 1533 1533 1537 1536 1544 1534 1545 1526 1525 1520 1520 1522 1524 1527 1529 1530 1532 1534 1537 1543 1552 1551 1556 1558 1560 1564 1568 1571 1571 1573 1573 1574 1575 1577 1579 1580 1581 1582 1582 1582 1583 1584 1585 1586 1587 1588 1589 1590
1535 1531 1532 1532 1534 1539 1541 1544 1526 1525 1522 1519 1520 1522 1522 1522 1522 1524 1527 1533 1539 1539 1544 1546 1546 1552 1559 1563 1566 1568 1569 1570 1572 1573 1574 1576 1577 1578 1579 1579 1579 1580 1582 1583 1585 1586 1587 1587 1589
1529 1532 1533 1535 1537 1550 1549 1548 1533 1528 1525 1521 1519 1518 1517 1516 1515 1517 1524 1531 1532 1533 1539 1540 1542 1547 1553 1558 1561 1563 1565 1566 1568 1570 1571 1573 1574 1575 1576 1577 1577 1578 1580 1581 1582 1583 1584 1585 1586
1529 1532 1547 1553 1552 1554 1550 1550 1529 1523 1523 1521 1520 1519 1517 1515 1514 1515 1518 1523 1526 1526 1534 1538 1542 1546 1549 1553 1556 1559 1562 1563 1564 1566 1568 1570 1571 1572 1572 1574 1575 1576 1578 1578 1579 1580 1581 1582 1583
1529 1529 1542 1566 1561 1549 1552 1545 1525 1522 1522 1523 1522 1521 1519 1516 1515 1515 1516 1519 1521 1524 1531 1535 1538 1542 1546 1549 1552 1556 1558 1559 1561 1563 1565 1566 1568 1569 1571 1571 1572 1573 1574 1575 1576 1577 1578 1578 1580
1531 1534 1531 1544 1555 1551 1546 1534 1519 1520 1520 1521 1521 1522 1520 1517 1514 1513 1514 1516 1518 1522 1525 1530 1535 1539 1542 1545 1548 1550 1553 1555 1556 1559 1561 1563 1565 1566 1567 1568 1568 1569 1570 1571 1572 1573 1574 1575 1577
1520 1526 1536 1539 1560 1563 1549 1548 1532 1518 1516 1519 1521 1521 1518 1516 1513 1512 1512 1513 1516 1519 1523 1527 1532 1535 1539 1541 1544 1547 1549 1551 1553 1555 1557 1559 1561 1563 1563 1564 1565 1565 1566 1567 1568 1569 1570 1571 1574
1526 1528 1535 1534 1541 1545 1551 1537 1513 1511 1518 1518 1521 1522 1520 1514 1512 1511 1511 1513 1515 1518 1522 1525 1528 1532 1535 1538 1541 1543 1545 1547 1549 1551 1553 1555 1557 1558 1559 1560 1561 1562 1563 1563 1563 1564 1566 1567 1570
1516 1512 1516 1528 1546 1549 1540 1531 1510 1515 1517 1520 1522 1522 1520 1515 1513 1512 1512 1513 1517 1520 1521 1524 1526 1529 1531 1533 1537 1539 1541 1543 1545 1546 1549 1551 1551 1552 1553 1556 1558 1558 1559 1560 1560 1559 1561 1563 1565